Time,TemperatureF,DewpointF,PressureIn,WindDirection,WindDirectionDegrees,WindSpeedMPH,WindSpeedGustMPH,Humidity,HourlyPrecipIn,Conditions,Clouds,dailyrainin,SoftwareType,DateUTC
2013-03-24 09:23:00,34.0,22.0,29.77,NNE,14,7.0,-999.0,62,-99.99,,,-99.99,,2013-03-24 13:23:00,
2013-03-24 09:33:00,34.0,22.0,29.77,NW,312,9.0,-999.0,61,-99.99,,,-99.99,,2013-03-24 13:33:00,
2013-03-24 09:43:00,34.0,22.0,29.77,NW,312,9.0,-999.0,61,-99.99,,,-99.99,,2013-03-24 13:43:00,
2013-03-24 09:52:00,34.0,22.0,29.77,NW,323,12.0,-999.0,60,-99.99,,,-99.99,,2013-03-24 13:52:00,
2013-03-24 10:02:00,34.0,22.0,29.78,North,11,11.0,-999.0,60,-99.99,,,-99.99,,2013-03-24 14:02:00,
2013-03-24 10:12:00,34.0,22.0,29.78,North,11,11.0,-999.0,60,-99.99,,,-99.99,,2013-03-24 14:12:00,
2013-03-24 10:22:00,34.0,21.0,29.77,NNW,332,12.0,-999.0,59,-99.99,,,-99.99,,2013-03-24 14:22:00,
2013-03-24 10:32:00,35.0,22.0,29.78,NNW,347,12.0,-999.0,59,-99.99,,,-99.99,,2013-03-24 14:32:00,
2013-03-24 10:42:00,35.0,22.0,29.78,NNW,347,12.0,-999.0,59,-99.99,,,-99.99,,2013-03-24 14:42:00,
2013-03-24 10:53:00,36.0,23.0,29.78,North,350,7.0,-999.0,58,-99.99,,,-99.99,,2013-03-24 14:53:00,
2013-03-24 11:02:00,36.0,22.0,29.77,North,360,10.0,-999.0,56,-99.99,,,-99.99,,2013-03-24 15:02:00,
2013-03-24 11:12:00,36.0,22.0,29.77,North,360,10.0,-999.0,56,-99.99,,,-99.99,,2013-03-24 15:12:00,
2013-03-24 11:22:00,36.0,22.0,29.77,North,356,9.0,-999.0,56,-99.99,,,-99.99,,2013-03-24 15:22:00,
2013-03-24 11:33:00,38.0,22.0,29.78,NNW,337,12.0,-999.0,53,-99.99,,,-99.99,,2013-03-24 15:33:00,
2013-03-24 11:43:00,38.0,22.0,29.78,NNW,337,12.0,-999.0,53,-99.99,,,-99.99,,2013-03-24 15:43:00,
2013-03-24 11:53:00,38.0,22.0,29.78,NNW,337,12.0,-999.0,53,-99.99,,,-99.99,,2013-03-24 15:53:00,
2013-03-24 12:03:00,39.0,23.0,29.76,North,360,8.0,-999.0,53,-99.99,,,-99.99,,2013-03-24 16:03:00,
2013-03-24 12:13:00,39.0,23.0,29.76,North,360,8.0,-999.0,53,-99.99,,,-99.99,,2013-03-24 16:13:00,
2013-03-24 12:23:00,39.0,23.0,29.76,North,360,8.0,-999.0,53,-99.99,,,-99.99,,2013-03-24 16:23:00,
2013-03-24 12:33:00,39.0,23.0,29.77,NNW,344,9.0,-999.0,52,-99.99,,,-99.99,,2013-03-24 16:33:00,
2013-03-24 12:42:00,39.0,23.0,29.77,NNW,344,9.0,-999.0,52,-99.99,,,-99.99,,2013-03-24 16:42:00,
2013-03-24 12:53:00,38.0,23.0,29.77,NNE,14,9.0,-999.0,55,-99.99,,,-99.99,,2013-03-24 16:53:00,
2013-03-24 13:03:00,39.0,24.0,29.77,WNW,294,7.0,-999.0,54,-99.99,,,-99.99,,2013-03-24 17:03:00,
2013-03-24 13:12:00,39.0,24.0,29.77,WNW,294,7.0,-999.0,54,-99.99,,,-99.99,,2013-03-24 17:12:00,
2013-03-24 13:23:00,39.0,24.0,29.77,WNW,294,7.0,-999.0,54,-99.99,,,-99.99,,2013-03-24 17:23:00,
2013-03-24 13:33:00,39.0,24.0,29.77,WNW,294,7.0,-999.0,54,-99.99,,,-99.99,,2013-03-24 17:33:00,
2013-03-24 13:42:00,39.0,24.0,29.77,WNW,294,7.0,-999.0,54,-99.99,,,-99.99,,2013-03-24 17:42:00,
2013-03-24 13:53:00,40.0,24.0,29.75,WNW,302,9.0,-999.0,52,-99.99,,,-99.99,,2013-03-24 17:53:00,
2013-03-24 14:03:00,40.0,23.0,29.75,North,360,9.0,-999.0,51,-99.99,,,-99.99,,2013-03-24 18:03:00,
2013-03-24 14:12:00,40.0,23.0,29.75,North,360,9.0,-999.0,51,-99.99,,,-99.99,,2013-03-24 18:12:00,
2013-03-24 14:22:00,40.0,24.0,29.75,North,6,11.0,-999.0,52,-99.99,,,-99.99,,2013-03-24 18:22:00,
2013-03-24 14:32:00,40.0,24.0,29.75,North,3,8.0,-999.0,52,-99.99,,,-99.99,,2013-03-24 18:32:00,
2013-03-24 14:43:00,40.0,24.0,29.75,North,3,8.0,-999.0,52,-99.99,,,-99.99,,2013-03-24 18:43:00,
2013-03-24 14:52:00,40.0,24.0,29.75,North,360,6.0,-999.0,52,-99.99,,,-99.99,,2013-03-24 18:52:00,
2013-03-24 15:02:00,42.0,25.0,29.73,North,360,8.0,-999.0,51,-99.99,,,-99.99,,2013-03-24 19:02:00,
2013-03-24 15:12:00,42.0,25.0,29.73,North,360,8.0,-999.0,51,-99.99,,,-99.99,,2013-03-24 19:12:00,
2013-03-24 15:22:00,41.0,24.0,29.73,North,357,12.0,-999.0,51,-99.99,,,-99.99,,2013-03-24 19:22:00,
2013-03-24 15:32:00,41.0,24.0,29.72,North,3,6.0,-999.0,51,-99.99,,,-99.99,,2013-03-24 19:32:00,
2013-03-24 15:43:00,41.0,24.0,29.72,North,3,6.0,-999.0,51,-99.99,,,-99.99,,2013-03-24 19:43:00,
2013-03-24 15:53:00,41.0,24.0,29.72,WNW,299,6.0,-999.0,50,-99.99,,,-99.99,,2013-03-24 19:53:00,
2013-03-24 16:03:00,41.0,25.0,29.71,North,10,8.0,-999.0,52,-99.99,,,-99.99,,2013-03-24 20:03:00,
2013-03-24 16:12:00,41.0,25.0,29.71,North,10,8.0,-999.0,52,-99.99,,,-99.99,,2013-03-24 20:12:00,
2013-03-24 16:22:00,39.0,23.0,29.71,NW,322,11.0,-999.0,53,-99.99,,,-99.99,,2013-03-24 20:22:00,
2013-03-24 16:32:00,39.0,24.0,29.71,NNE,20,6.0,-999.0,54,-99.99,,,-99.99,,2013-03-24 20:32:00,
2013-03-24 16:42:00,39.0,24.0,29.71,NNE,20,6.0,-999.0,54,-99.99,,,-99.99,,2013-03-24 20:42:00,
2013-03-24 16:53:00,39.0,24.0,29.71,North,360,4.0,-999.0,55,-99.99,,,-99.99,,2013-03-24 20:53:00,
2013-03-24 17:02:00,39.0,24.0,29.70,NE,52,6.0,-999.0,54,-99.99,,,-99.99,,2013-03-24 21:02:00,
2013-03-24 17:12:00,39.0,24.0,29.70,NE,52,6.0,-999.0,54,-99.99,,,-99.99,,2013-03-24 21:12:00,
2013-03-24 17:22:00,39.0,24.0,29.70,NE,52,6.0,-999.0,54,-99.99,,,-99.99,,2013-03-24 21:22:00,
2013-03-24 17:33:00,39.0,23.0,29.70,North,360,3.0,-999.0,53,-99.99,,,-99.99,,2013-03-24 21:33:00,
2013-03-24 17:43:00,39.0,23.0,29.70,North,360,3.0,-999.0,53,-99.99,,,-99.99,,2013-03-24 21:43:00,
2013-03-24 17:53:00,39.0,23.0,29.70,North,360,3.0,-999.0,53,-99.99,,,-99.99,,2013-03-24 21:53:00,
2013-03-24 18:03:00,39.0,23.0,29.70,NNW,346,10.0,-999.0,52,-99.99,,,-99.99,,2013-03-24 22:03:00,
2013-03-24 18:13:00,39.0,23.0,29.70,NNW,346,10.0,-999.0,52,-99.99,,,-99.99,,2013-03-24 22:13:00,
2013-03-24 18:23:00,39.0,23.0,29.70,North,10,3.0,-999.0,53,-99.99,,,-99.99,,2013-03-24 22:23:00,
2013-03-24 18:33:00,38.0,23.0,29.71,NNE,21,6.0,-999.0,54,-99.99,,,-99.99,,2013-03-24 22:33:00,
2013-03-24 18:43:00,38.0,23.0,29.71,NNE,21,6.0,-999.0,54,-99.99,,,-99.99,,2013-03-24 22:43:00,
2013-03-24 18:53:00,38.0,23.0,29.71,NNE,21,6.0,-999.0,54,-99.99,,,-99.99,,2013-03-24 22:53:00,
2013-03-24 19:03:00,38.0,23.0,29.71,NNE,21,6.0,-999.0,54,-99.99,,,-99.99,,2013-03-24 23:03:00,
2013-03-24 19:12:00,38.0,23.0,29.71,NNE,21,6.0,-999.0,54,-99.99,,,-99.99,,2013-03-24 23:12:00,
2013-03-24 19:23:00,36.0,22.0,29.72,North,7,6.0,-999.0,57,-99.99,,,-99.99,,2013-03-24 23:23:00,
2013-03-24 19:32:00,36.0,22.0,29.72,North,7,6.0,-999.0,57,-99.99,,,-99.99,,2013-03-24 23:32:00,
2013-03-24 19:42:00,36.0,22.0,29.72,North,7,6.0,-999.0,57,-99.99,,,-99.99,,2013-03-24 23:42:00,
2013-03-24 19:53:00,35.0,23.0,29.73,NNE,16,5.0,-999.0,60,-99.99,,,-99.99,,2013-03-24 23:53:00,
2013-03-24 20:02:00,34.0,22.0,29.72,North,360,6.0,-999.0,61,-99.99,,,-99.99,,2013-03-25 00:02:00,
2013-03-24 20:12:00,34.0,22.0,29.72,North,360,6.0,-999.0,61,-99.99,,,-99.99,,2013-03-25 00:12:00,
2013-03-24 20:22:00,34.0,22.0,29.72,North,357,4.0,-999.0,62,-99.99,,,-99.99,,2013-03-25 00:22:00,
2013-03-24 20:32:00,34.0,22.0,29.72,North,357,7.0,-999.0,61,-99.99,,,-99.99,,2013-03-25 00:32:00,
2013-03-24 20:42:00,34.0,22.0,29.72,North,357,7.0,-999.0,61,-99.99,,,-99.99,,2013-03-25 00:42:00,
2013-03-24 20:53:00,33.0,21.0,29.72,North,354,5.0,-999.0,62,-99.99,,,-99.99,,2013-03-25 00:53:00,
2013-03-24 21:02:00,33.0,22.0,29.72,North,4,4.0,-999.0,63,-99.99,,,-99.99,,2013-03-25 01:02:00,
2013-03-24 21:12:00,33.0,22.0,29.72,North,4,4.0,-999.0,63,-99.99,,,-99.99,,2013-03-25 01:12:00,
2013-03-24 21:22:00,33.0,22.0,29.73,North,360,4.0,-999.0,64,-99.99,,,-99.99,,2013-03-25 01:22:00,
2013-03-24 21:32:00,33.0,22.0,29.73,North,360,4.0,-999.0,64,-99.99,,,-99.99,,2013-03-25 01:32:00,
2013-03-24 21:42:00,33.0,22.0,29.73,North,360,4.0,-999.0,64,-99.99,,,-99.99,,2013-03-25 01:42:00,
2013-03-24 21:53:00,32.0,22.0,29.74,North,360,0.0,-999.0,66,-99.99,,,-99.99,,2013-03-25 01:53:00,
2013-03-24 22:02:00,32.0,22.0,29.74,North,360,0.0,-999.0,66,-99.99,,,-99.99,,2013-03-25 02:02:00,
2013-03-24 22:12:00,32.0,22.0,29.74,North,360,0.0,-999.0,66,-99.99,,,-99.99,,2013-03-25 02:12:00,
2013-03-24 22:22:00,32.0,22.0,29.75,North,6,0.0,-999.0,66,-99.99,,,-99.99,,2013-03-25 02:22:00,
2013-03-24 22:33:00,32.0,22.0,29.74,NNE,28,0.0,-999.0,67,-99.99,,,-99.99,,2013-03-25 02:33:00,
2013-03-24 22:43:00,32.0,22.0,29.74,NNE,28,0.0,-999.0,67,-99.99,,,-99.99,,2013-03-25 02:43:00,
2013-03-24 22:52:00,32.0,22.0,29.74,NNE,28,0.0,-999.0,67,-99.99,,,-99.99,,2013-03-25 02:52:00,
2013-03-24 23:02:00,31.0,22.0,29.74,NNE,18,0.0,-999.0,68,-99.99,,,-99.99,,2013-03-25 03:02:00,
2013-03-24 23:13:00,31.0,22.0,29.74,NNE,18,0.0,-999.0,68,-99.99,,,-99.99,,2013-03-25 03:13:00,
2013-03-24 23:23:00,30.0,21.0,29.74,North,360,0.0,-999.0,68,-99.99,,,-99.99,,2013-03-25 03:23:00,
2013-03-24 23:34:00,30.0,21.0,29.73,NNW,340,0.0,-999.0,69,-99.99,,,-99.99,,2013-03-25 03:34:00,
2013-03-24 23:43:00,30.0,21.0,29.73,NNW,328,0.0,-999.0,70,-99.99,,,-99.99,,2013-03-25 03:43:00,
2013-03-24 23:53:00,30.0,21.0,29.73,NNW,328,0.0,-999.0,70,-99.99,,,-99.99,,2013-03-25 03:53:00,